User: anonymous   Login
Location: Kuala Lumpur International
(3.1298°N, 101.5524°E)
Time: 05:37:23
(UTC+00:00)
Language:

ARIANE 6 FM1 Upper Stage - Orbit

View from above orbital plane
View from above orbital plane
View from above satellite
View from above satellite

Ground track
Ground track

The orbit data is extracted from the following two-line orbital elements,

1 60235U 24128A   24281.53358480  .00011603  00000-0  10400-2 0  9994
2 60235  61.9965 212.4321 0022072 326.2871  33.6812 14.95991050 13416
Epoch (UTC): 07 October 2024 12:48:21
Eccentricity: 0.0022072
inclination: 61.9965°
perigee height: 564 km
apogee height: 594 km
right ascension of ascending node: 212.4321°
argument of perigee: 326.2871°
revolutions per day: 14.95991050
mean anomaly at epoch: 33.6812°
orbit number at epoch: 1341

The dashed part of the orbit path shows where the satellite is in the earth's shadow,  

DLR